[[{"header":{"parameterUnit":"m.s-1","parameterCategory":1,"la1":30.2991,"la2":30.254,"lo1":-89.0895,"lo2":-89.0444,"dy":0.0017,"dx":0.0017,"nx":28,"ny":28,"refTime":"2025-03-31T21:00:00:Z","depth":0,"parameterNumber":2,"parameterNumberName":"U-component_of_WINDS"},"data":[0,0,0,0,0,0,0,0,0,0,0,0,0,0,0,0,0,0,0,0,0,0,0,0,0,0,0,0,0,0,0,0,0,0,0,0,0,0,0,0,0,0,0,0,0,0,0,0,0,0,0,0,0,0,0,0,0,0,0.649,0.649,0,0.6453,0.6453,0.6453,0.6446,0.6446,0.6447,0.6447,0.6408,0.6407,0.6406,0,0,0,0,0,0,0,0,0,0,0,0,0,0.6555,0.6554,0.649,0.649,0.649,0.6453,0.6453,0.6452,0.6446,0.6446,0.6447,0.6447,0.6409,0.6407,0.6405,0,0,0,0,0,0,0,0,0,0,0,0,0,0.6524,0.6554,0.6491,0.6482,0.6481,0.6454,0.6453,0.6452,0.6446,0.6446,0.6447,0.6447,0.6409,0.6407,0.6405,0.6383,0,0,0.6399,0.6398,0,0,0,0,0,0,0,0,0.6525,0.6521,0.6484,0.6483,0.6481,0.6455,0.6462,0.6429,0.6446,0.6459,0.6447,0.6448,0.6423,0.642,0.6412,0.6382,0.638,0.6399,0.6398,0.6397,0.6396,0,0,0,0,0,0,0,0.6528,0.6523,0.6476,0.6483,0.6482,0.648,0.6476,0.6455,0.6439,0.6458,0.6458,0.6453,0.6423,0.6414,0.6411,0.6379,0.6399,0.6397,0.6396,0.6395,0.633,0.6329,0,0,0,0,0,0,0.6531,0.6525,0.6477,0.6475,0.6505,0.6478,0.6474,0.6463,0.6439,0.6436,0.6453,0.6453,0.6417,0.6413,0.641,0.6383,0.6397,0.6395,0.6394,0.6331,0.633,0.6329,0,0,0,0,0,0,0.6533,0.6527,0.6478,0.6499,0.6493,0.6477,0.6464,0.6462,0.6453,0.6435,0.6432,0.6447,0.6417,0.6413,0.639,0.6382,0.6394,0.6392,0.6331,0.633,0.633,0.633,0,0,0,0,0,0,0.6535,0.6528,0.6519,0.6499,0.6492,0.646,0.6464,0.6461,0.645,0.645,0.6429,0.6426,0.6417,0.6393,0.6388,0.6379,0.6391,0.6332,0.6331,0.633,0.633,0.6329,0.6328,0,0,0,0,0,0.6537,0.652,0.6519,0.6513,0.6481,0.6459,0.6455,0.6446,0.6449,0.6441,0.6429,0.6427,0.6384,0.6391,0.6385,0.6376,0.6332,0.6331,0.633,0.6331,0.6329,0.6328,0,0,0,0,0,0,0.6539,0.6518,0.6516,0.6492,0.6478,0.6458,0.6447,0.6444,0.6428,0.6428,0.6417,0.6412,0.6391,0.6381,0.639,0.6354,0.6358,0.6356,0.6361,0.6359,0.6358,0.6361,0.6389,0,0,0,0,0,0.6537,0.6521,0.6503,0.6484,0.6477,0.6463,0.6453,0.6447,0.6432,0.6425,0.6412,0.6397,0.638,0.6369,0.6352,0.6329,0.6325,0.6319,0.6318,0.6317,0.6315,0.6303,0.63,0.6325,0.6325,0.6325,0,0,0.6532,0.6518,0.6509,0.6484,0.6472,0.6456,0.6458,0.6441,0.6428,0.6423,0.6401,0.6391,0.6373,0.635,0.634,0.6341,0.6308,0.6316,0.6315,0.6314,0.6301,0.6299,0.6297,0.6325,0.6325,0.6325,0,0,0.6515,0.6503,0.6486,0.6474,0.6457,0.6448,0.6444,0.6425,0.6418,0.6396,0.6392,0.6377,0.6348,0.6336,0.6326,0.6305,0.6302,0.63,0.6293,0.6281,0.6279,0.6277,0.627,0.6268,0.6298,0.6298,0.6298,0,0.6511,0.6487,0.6478,0.6461,0.645,0.6445,0.6428,0.6417,0.6394,0.6387,0.6389,0.6353,0.6341,0.6315,0.6311,0.6302,0.6298,0.6302,0.628,0.6278,0.6277,0.627,0.6267,0.6298,0.6298,0.6298,0.6298,0,0.6483,0.6466,0.6455,0.6434,0.6422,0.6405,0.6393,0.6382,0.6378,0.6369,0.6347,0.6332,0.6313,0.6306,0.6301,0.628,0.6282,0.6283,0.6287,0.6274,0.6268,0.6265,0.6298,0.6298,0.6298,0.6298,0,0,0.6465,0.6441,0.6437,0.6427,0.6408,0.6395,0.6378,0.6359,0.635,0.6335,0.632,0.6296,0.6297,0.6286,0.6279,0.6269,0.6254,0.6271,0.627,0.6268,0.6231,0.6231,0.6228,0.6252,0.6252,0.6251,0.6232,0,0.6446,0.6416,0.6408,0.6382,0.6367,0.6362,0.6348,0.6334,0.6325,0.6311,0.6301,0.6285,0.6286,0.628,0.6269,0.6258,0.6246,0.6259,0.6239,0.6238,0.6243,0.6224,0.6224,0.6206,0.623,0.6229,0.6229,0,0.6419,0.6405,0.6378,0.6361,0.6354,0.6341,0.6324,0.631,0.6295,0.6289,0.6277,0.6272,0.6255,0.626,0.6236,0.6245,0.6236,0.6229,0.6229,0.6226,0.6233,0.6221,0.6201,0.6198,0.6225,0.6225,0.6225,0,0.641,0.6383,0.6364,0.6356,0.6336,0.6327,0.6318,0.6303,0.6293,0.6278,0.6271,0.6254,0.6244,0.6231,0.6222,0.6227,0.6199,0.6203,0.6194,0.6194,0.6188,0.6188,0.6165,0.6182,0.6182,0.6182,0.6182,0,0.6389,0.6373,0.6359,0.6347,0.6329,0.632,0.6302,0.6293,0.628,0.6267,0.6261,0.6249,0.6237,0.6223,0.6215,0.6196,0.6192,0.6187,0.6185,0.6188,0.6188,0.6182,0.6183,0.6181,0.6182,0.6182,0.6182,0,0.6375,0.6365,0.6344,0.6327,0.6322,0.631,0.6295,0.6283,0.6275,0.6258,0.6253,0.624,0.6223,0.6212,0.619,0.6186,0.6165,0.6164,0.617,0.6169,0.6161,0.6162,0.6133,0.6129,0.6148,0.6148,0.6148,0,0.6362,0.635,0.6332,0.6323,0.6314,0.6299,0.6289,0.6279,0.6269,0.6251,0.6242,0.6225,0.621,0.6183,0.6172,0.6155,0.6154,0.6145,0.6151,0.6154,0.6154,0.6155,0.6154,0.6143,0.6143,0.6143,0.6143,0,0.6341,0.6337,0.6323,0.6307,0.6295,0.6282,0.6269,0.6261,0.625,0.6239,0.6222,0.6211,0.6189,0.6172,0.6155,0.6146,0.6142,0.6141,0.6138,0.614,0.6145,0.6143,0.6168,0.6142,0.6142,0.6142,0.6142,0.6142,0.6327,0.6316,0.6302,0.6287,0.6276,0.6264,0.6253,0.6243,0.6229,0.6211,0.6207,0.6189,0.6175,0.6151,0.6142,0.6128,0.6129,0.6124,0.6123,0.6122,0.6122,0.6147,0.6124,0.6124,0.6124,0.6124,0.6124,0,0.6306,0.6297,0.6283,0.6265,0.6253,0.6252,0.6238,0.6227,0.6212,0.6199,0.6186,0.6166,0.615,0.6138,0.6121,0.6113,0.6111,0.6108,0.6109,0.6107,0.6122,0.6126,0.611,0.611,0.611,0.611,0.611,0.611,0.6293,0.6275,0.627,0.6246,0.6237,0.622,0.6212,0.6201,0.6191,0.617,0.6157,0.6149,0.6137,0.6119,0.6105,0.6101,0.6096,0.6094,0.609,0.6104,0.6106,0.6107,0.6112,0.6093,0.6093,0.6077,0.6076,0.6076]},{"header":{"parameterUnit":"m.s-1","parameterCategory":1,"la1":30.2991,"la2":30.254,"lo1":-89.0895,"lo2":-89.0444,"dy":0.0017,"dx":0.0017,"nx":28,"ny":28,"refTime":"2025-03-31T21:00:00:Z","depth":0,"parameterNumber":3,"parameterNumberName":"V-component_of_WINDS"},"data":[0,0,0,0,0,0,0,0,0,0,0,0,0,0,0,0,0,0,0,0,0,0,0,0,0,0,0,0,0,0,0,0,0,0,0,0,0,0,0,0,0,0,0,0,0,0,0,0,0,0,0,0,0,0,0,0,0,0,1.3902,1.3903,0,1.4009,1.4011,1.4012,1.403,1.4029,1.4028,1.4027,1.4139,1.4143,1.4146,0,0,0,0,0,0,0,0,0,0,0,0,0,1.3713,1.3717,1.3902,1.3903,1.3905,1.4009,1.4011,1.4012,1.403,1.4029,1.4028,1.4027,1.4138,1.4142,1.4147,0,0,0,0,0,0,0,0,0,0,0,0,0,1.3805,1.3718,1.3902,1.3926,1.393,1.4009,1.4011,1.4013,1.4031,1.4029,1.4028,1.4026,1.4136,1.4142,1.4147,1.421,0,0,1.4165,1.4167,0,0,0,0,0,0,0,0,1.38,1.3812,1.3921,1.3925,1.3929,1.4005,1.3985,1.4079,1.4031,1.3992,1.4027,1.4026,1.4096,1.4105,1.4128,1.4216,1.422,1.4165,1.4169,1.4171,1.4173,0,0,0,0,0,0,0,1.3794,1.3808,1.3945,1.3923,1.3927,1.3932,1.3944,1.4003,1.405,1.3996,1.3997,1.4009,1.4097,1.4122,1.4131,1.4222,1.4165,1.417,1.4174,1.4176,1.4366,1.4368,0,0,0,0,0,0,1.3783,1.3802,1.3941,1.3948,1.386,1.3937,1.395,1.3982,1.405,1.4059,1.4011,1.401,1.4113,1.4124,1.4135,1.4213,1.4171,1.4177,1.418,1.4365,1.4367,1.4368,0,0,0,0,0,0,1.3779,1.3795,1.3937,1.3876,1.3894,1.3941,1.3977,1.3985,1.401,1.4061,1.407,1.4027,1.4112,1.4126,1.4191,1.4217,1.4179,1.4185,1.4363,1.4365,1.4368,1.437,0,0,0,0,0,0,1.3773,1.3793,1.3818,1.3876,1.3897,1.3992,1.3979,1.3988,1.4019,1.402,1.4079,1.4088,1.4112,1.4182,1.4197,1.4224,1.4189,1.4361,1.4364,1.4367,1.4368,1.4372,1.4376,0,0,0,0,0,1.3766,1.3815,1.3819,1.3836,1.3929,1.3993,1.4005,1.4032,1.4021,1.4046,1.4079,1.4086,1.4211,1.4189,1.4205,1.4235,1.4359,1.4363,1.4367,1.4366,1.4371,1.4375,0,0,0,0,0,0,1.3759,1.3823,1.3828,1.3897,1.3939,1.3996,1.4029,1.4037,1.4084,1.4082,1.4114,1.4128,1.4191,1.4219,1.4193,1.4299,1.4285,1.4292,1.4278,1.4284,1.4288,1.428,1.4194,0,0,0,0,0,1.3766,1.3812,1.3865,1.3921,1.3941,1.3981,1.401,1.4027,1.4073,1.4091,1.4129,1.4173,1.4222,1.4254,1.4303,1.4371,1.4385,1.4399,1.4403,1.4406,1.4412,1.4451,1.4458,1.438,1.438,1.438,0,0,1.3779,1.382,1.3848,1.392,1.3955,1.4003,1.3996,1.4047,1.4083,1.4099,1.4163,1.4191,1.4243,1.4309,1.4341,1.4335,1.4437,1.4411,1.4413,1.4418,1.4455,1.4463,1.4469,1.4383,1.4382,1.4382,0,0,1.3829,1.3864,1.3914,1.3949,1.4001,1.4027,1.4039,1.4094,1.4114,1.4177,1.419,1.4233,1.4318,1.4354,1.4383,1.4444,1.4453,1.4459,1.4481,1.4518,1.4524,1.4529,1.4552,1.456,1.4465,1.4465,1.4465,0,1.384,1.3913,1.3939,1.3989,1.4021,1.4036,1.4086,1.4119,1.4185,1.4206,1.4198,1.4304,1.434,1.4415,1.443,1.4453,1.4468,1.4453,1.4521,1.4527,1.4532,1.4554,1.4562,1.4465,1.4465,1.4465,1.4465,0,1.3923,1.3973,1.4007,1.407,1.4105,1.4155,1.4189,1.4221,1.4234,1.4261,1.4325,1.4368,1.4425,1.4444,1.4458,1.4522,1.4516,1.4514,1.4501,1.454,1.4561,1.4569,1.4466,1.4466,1.4466,1.4466,0,0,1.3974,1.4049,1.4061,1.4089,1.4147,1.4187,1.4237,1.4292,1.4319,1.4364,1.4407,1.4477,1.4475,1.4509,1.4526,1.4559,1.4605,1.4553,1.4554,1.4562,1.4678,1.468,1.4689,1.461,1.4611,1.4613,1.4674,0,1.4032,1.4122,1.4146,1.4223,1.427,1.4284,1.4328,1.4368,1.4394,1.4437,1.4465,1.4515,1.4508,1.4528,1.456,1.4592,1.4629,1.4588,1.4652,1.4653,1.464,1.47,1.4703,1.4759,1.4682,1.4684,1.4685,0,1.4112,1.4157,1.4238,1.4289,1.4309,1.4349,1.4401,1.4441,1.4487,1.4504,1.454,1.4554,1.4607,1.4589,1.4664,1.4635,1.4662,1.4682,1.4685,1.4693,1.4673,1.4711,1.4777,1.4786,1.4698,1.4697,1.4696,0,1.4141,1.4222,1.4281,1.4305,1.4366,1.4393,1.442,1.4464,1.4495,1.454,1.4561,1.4612,1.464,1.468,1.4707,1.4692,1.4779,1.4764,1.4795,1.4795,1.4815,1.4813,1.4887,1.483,1.4829,1.4829,1.4829,0,1.4204,1.4254,1.4295,1.4332,1.4387,1.4414,1.4468,1.4496,1.4535,1.4577,1.4591,1.4631,1.4664,1.4708,1.473,1.4788,1.4801,1.4816,1.4822,1.4816,1.4814,1.4835,1.4833,1.4832,1.4831,1.4831,1.483,0,1.4248,1.4278,1.4343,1.4395,1.4409,1.4448,1.4492,1.4528,1.4553,1.4606,1.462,1.466,1.4712,1.4743,1.4809,1.4824,1.4889,1.4892,1.4873,1.4876,1.4906,1.4904,1.4998,1.5012,1.4943,1.4944,1.4944,0,1.4287,1.4325,1.438,1.4409,1.4436,1.4482,1.4514,1.4541,1.4573,1.4627,1.4657,1.471,1.4754,1.4836,1.4872,1.4922,1.4928,1.4957,1.4936,1.4928,1.493,1.4928,1.4932,1.4961,1.4962,1.4963,1.4963,0,1.4353,1.4365,1.441,1.4459,1.4496,1.4537,1.4577,1.46,1.4634,1.4669,1.4723,1.4756,1.4823,1.4876,1.4929,1.4957,1.4966,1.4969,1.4979,1.4974,1.4963,1.497,1.4885,1.4967,1.4967,1.4967,1.4966,1.4966,1.4396,1.4431,1.4475,1.4524,1.4556,1.4593,1.463,1.4658,1.4703,1.4759,1.4772,1.4828,1.4872,1.4944,1.4973,1.5018,1.5013,1.5028,1.5032,1.5035,1.5037,1.4954,1.5027,1.5027,1.5027,1.5027,1.5027,0,1.4464,1.4492,1.4537,1.4592,1.4631,1.4634,1.4678,1.4711,1.4759,1.4799,1.4842,1.4902,1.4953,1.4991,1.5043,1.5071,1.5077,1.5084,1.5083,1.509,1.5037,1.5024,1.5079,1.5079,1.5079,1.5079,1.5079,1.5079,1.4504,1.4562,1.458,1.4654,1.4683,1.4737,1.4762,1.4796,1.4828,1.4895,1.4937,1.4961,1.5,1.5055,1.5101,1.5111,1.513,1.5137,1.5148,1.5099,1.5093,1.5088,1.5076,1.5141,1.5141,1.5197,1.5198,1.5198]}]]